DW3195 Weather Reports


time (UTC)temp
C
wind
direction
speed
KPH
gust
KPH
rain 1hr
cm
rain 24hr
cm
rain mn
cm
humidity
%
barometer
mb
20260503004504 5 8 3.2 8.0 0.00 0.00 0.00 68 923.2
20260503004004 6 49 3.2 4.8 0.00 0.00 0.00 69 923.3
20260503003004 6 65 0.0 8.0 0.00 0.00 0.00 62 923.2
20260503001504 6 320 4.8 11.3 0.00 0.00 0.00 61 923.1
20260503000505 7 268 3.2 9.7 0.00 0.00 0.00 59 922.9
20260503000005 7 351 3.2 11.3 0.00 0.00 0.00 59 923.0
20260502234506 7 231 3.2 8.0 0.00 0.00 0.00 57 922.8
20260502234005 7 270 3.2 8.0 0.00 0.00 0.00 57 922.8
20260502233506 8 300 4.8 14.5 0.00 0.00 0.00 56 922.8
20260502233006 8 253 4.8 12.9 0.00 0.00 0.00 56 922.7
20260502231505 8 38 1.6 9.7 0.00 0.00 0.00 54 922.6
20260502231005 8 301 3.2 11.3 0.00 0.00 0.00 54 922.6
20260502230506 8 223 6.4 12.9 0.00 0.00 0.00 54 922.7
20260502224505 8 258 4.8 11.3 0.00 0.00 0.00 54 922.6
20260502224006 8 187 6.4 12.9 0.00 0.00 0.00 54 922.5
20260502223505 8 274 3.2 16.1 0.00 0.00 0.00 54 922.5
20260502223006 8 245 4.8 19.3 0.00 0.00 0.00 54 922.5
20260502221506 8 257 4.8 19.3 0.00 0.00 0.00 53 922.4
20260502221006 8 250 3.2 9.7 0.00 0.00 0.00 55 922.4
20260502220005 8 162 4.8 19.3 0.00 0.00 0.00 55 922.4
20260502214505 9 264 1.6 9.7 0.00 0.00 0.00 54 922.1
20260502213505 9 267 4.8 9.7 0.00 0.00 0.00 53 922.1
20260502213005 8 288 6.4 11.3 0.00 0.00 0.00 53 922.0
20260502211505 8 293 4.8 14.5 0.00 0.00 0.00 54 922.0
20260502211005 8 299 4.8 14.5 0.00 0.00 0.00 54 922.0
20260502210005 9 254 4.8 16.1 0.00 0.00 0.00 54 921.9
20260502204505 9 213 4.8 11.3 0.00 0.00 0.00 52 922.0
20260502204005 9 3 3.2 12.9 0.00 0.00 0.00 54 922.0
20260502203506 9 226 4.8 9.7 0.00 0.00 0.00 53 922.0
20260502201505 9 302 6.4 12.9 0.00 0.00 0.00 51 922.2
20260502201005 9 259 3.2 12.9 0.00 0.00 0.00 52 922.1
20260502200505 9 240 4.8 12.9 0.00 0.00 0.00 53 922.3
20260502200005 9 233 8.0 22.5 0.00 0.00 0.00 52 922.2
20260502194005 9 266 6.4 14.5 0.00 0.00 0.00 51 922.3
20260502193505 9 50 4.8 12.9 0.00 0.00 0.00 52 922.4
20260502193005 9 311 6.4 16.1 0.00 0.00 0.00 52 922.4
20260502191505 10 255 4.8 16.1 0.00 0.00 0.00 50 922.4
20260502191005 10 314 8.0 20.9 0.00 0.00 0.00 50 922.4
20260502190505 10 330 8.0 14.5 0.00 0.00 0.00 49 922.4
20260502190005 10 265 4.8 14.5 0.00 0.00 0.00 48 922.3
20260502184005 10 297 4.8 14.5 0.00 0.00 0.00 49 922.4
20260502183505 11 236 4.8 16.1 0.00 0.00 0.00 47 922.5
20260502183005 11 294 6.4 16.1 0.00 0.00 0.00 49 922.5
20260502181504 10 294 6.4 12.9 0.00 0.00 0.00 50 922.5
20260502181005 10 289 3.2 14.5 0.00 0.00 0.00 51 922.6
20260502180504 10 277 6.4 11.3 0.00 0.00 0.00 50 922.6
20260502170505 10 271 8.0 19.3 0.00 0.00 0.00 49 922.8
20260502164004 11 267 3.2 11.3 0.00 0.00 0.00 50 922.8
20260502163004 11 266 9.7 16.1 0.00 0.00 0.00 48 922.9
20260502161004 10 28 6.4 12.9 0.00 0.00 0.00 50 923.1
20260502160505 10 340 8.0 16.1 0.00 0.00 0.00 50 923.0
20260502151504 10 294 3.2 11.3 0.00 0.00 0.00 52 923.4
20260502151004 10 292 8.0 14.5 0.00 0.00 0.00 52 923.3
20260502130505 5 94 1.6 4.8 0.00 0.00 0.00 70 923.4
20260502123505 5 170 1.6 8.0 0.00 0.00 0.00 75 923.4
20260502123005 4 100 1.6 8.0 0.00 0.00 0.00 76 923.4
20260502121505 3 144 1.6 4.8 0.00 0.00 0.00 81 923.4
20260502120505 3 158 0.0 3.2 0.00 0.00 0.00 90 923.4
20260502114005 1 110 0.0 1.6 0.00 0.00 0.00 94 923.3
20260502113005 1 345 0.0 3.2 0.00 0.00 0.00 94 923.3
20260502111505 0 36 0.0 1.6 0.00 0.00 0.00 93 923.2
20260502111005 0 323 0.0 1.6 0.00 0.00 0.00 92 923.1
20260502110004 0 39 0.0 1.6 0.00 0.00 0.00 92 923.1
20260502104505 1 37 0.0 3.2 0.00 0.00 0.00 91 923.0
20260502104005 1 337 0.0 3.2 0.00 0.00 0.00 91 923.0
20260502103005 1 32 1.6 3.2 0.00 0.00 0.00 89 922.7
20260502101504 2 35 1.6 3.2 0.00 0.00 0.00 89 922.8
20260502101004 2 356 1.6 4.8 0.00 0.00 0.00 88 923.0
20260502100505 2 325 3.2 4.8 0.00 0.00 0.00 90 923.1
20260502091505 4 26 1.6 3.2 0.00 0.00 0.00 81 923.3
20260502091005 4 24 0.0 3.2 0.00 0.00 0.00 79 923.4
20260502090505 5 64 0.0 3.2 0.00 0.00 0.00 79 923.4
20260502071504 6 246 1.6 8.0 0.00 0.00 0.00 73 923.0
20260502071004 6 245 0.0 3.2 0.00 0.00 0.00 73 923.1
20260502070504 6 262 1.6 3.2 0.00 0.00 0.00 72 923.1
20260502070004 6 340 0.0 4.8 0.00 0.00 0.00 73 923.0
20260502064504 6 336 1.6 4.8 0.00 0.00 0.00 72 923.2
20260502063504 6 310 0.0 4.8 0.00 0.00 0.00 72 923.2
20260502063004 6 294 1.6 4.8 0.00 0.00 0.00 71 923.4
20260502061504 7 290 3.2 8.0 0.00 0.00 0.00 71 923.4
20260502060505 7 284 1.6 8.0 0.00 0.00 0.00 75 923.4
20260502054005 7 37 3.2 8.0 0.00 0.00 0.00 78 923.5
20260502053005 7 340 3.2 8.0 0.00 0.00 0.00 78 923.4
20260502051505 7 282 4.8 9.7 0.00 0.00 0.00 76 923.3
20260502051005 7 272 1.6 9.7 0.00 0.00 0.00 76 923.3
20260502050005 7 304 3.2 9.7 0.00 0.00 0.00 75 923.3
20260502044005 8 310 1.6 4.8 0.00 0.00 0.00 74 923.3
20260502043505 8 266 0.0 3.2 0.00 0.00 0.00 75 923.4
20260502043005 8 167 0.0 11.3 0.00 0.00 0.00 74 923.4
20260502041505 8 216 3.2 9.7 0.00 0.00 0.00 73 923.5
20260502041005 8 286 4.8 11.3 0.00 0.00 0.00 72 923.5
20260502040506 8 260 3.2 9.7 0.00 0.00 0.00 73 923.4
20260502040005 8 91 3.2 9.7 0.00 0.00 0.00 74 923.4
20260502034505 8 256 4.8 12.9 0.00 0.00 0.00 72 923.4
20260502034005 8 283 4.8 9.7 0.00 0.00 0.00 72 923.4
20260502033505 8 264 1.6 3.2 0.00 0.00 0.00 72 923.3
20260502033005 8 261 3.2 11.3 0.00 0.00 0.00 72 923.3
20260502031505 9 285 3.2 8.0 0.00 0.00 0.00 71 923.5
20260502031006 9 270 1.6 8.0 0.00 0.00 0.00 70 923.5
20260502030505 9 226 3.2 8.0 0.00 0.00 0.00 70 923.5
20260502023506 10 170 4.8 9.7 0.00 0.00 0.00 70 923.2
20260502023007 10 223 3.2 11.3 0.00 0.00 0.00 71 923.2
20260502021506 10 253 3.2 11.3 0.00 0.00 0.00 70 923.0
20260502021005 10 265 1.6 12.9 0.00 0.00 0.00 69 923.0
20260502020005 10 218 4.8 11.3 0.00 0.00 0.00 71 922.9
20260502014505 10 209 1.6 8.0 0.00 0.00 0.00 71 922.5
20260502014005 10 251 3.2 9.7 0.00 0.00 0.00 71 922.3
20260502013506 10 299 3.2 11.3 0.00 0.00 0.00 71 922.3
20260502013005 10 260 4.8 14.5 0.00 0.00 0.00 72 922.2
20260502011505 10 253 4.8 14.5 0.00 0.00 0.00 72 922.2
20260502011006 10 275 4.8 12.9 0.00 0.00 0.00 70 922.1
20260502010505 10 270 4.8 9.7 0.00 0.00 0.00 70 922.1